Weather in Belgorod-Dnestrovskij

Ukraine / Odesa District     46°11′11″N   30°19′59″E
temp.,
°C
wind,
m/s
gust,
m/s
humid.,
%
clouds,
%
prec.,
mm/h
press.,
hPa
HPBL,
m
22 april, thu
thu2200:00+9ssw45865 0.0 101878
03:00+9sw33855 0.0 101835
06:00+9s34855 0.0 101955
09:00+11s45785 0.0 1020181
12:00+14s67633 0.0 1020665
15:00+14s776215 0.6 1019719
18:00+14s7106451 0.9 1018283
21:00+11ssw7127610 0.9 1019198
23 april, fri
fri2300:00+11s7147714 0.0 1018240
03:00+10s6118713 0.0 1018202
06:00+10ssw5109297 0.4 1017203
09:00+12sw5779100 0.7 1017164
12:00+14sw4671100 0.9 1017502
15:00+11nw5890100 6.6 1017244
18:00+11wnw4681100 0.9 1017376
21:00+8n6983100 2.9 1019465
24 april, sat
sat2400:00+6nw57882 0.0 1020325
03:00+6wnw45850 0.0 1020150
06:00+6nw45790 0.0 1021146
09:00+9wnw45620 0.0 1022407
12:00+11nnw7857100 0.0 10221065
15:00+10nw785540 0.0 10231060
18:00+11nnw67425 0.0 1023854
21:00+9wnw22495 0.0 102430
25 april, sun
sun2500:00+8n22482 0.0 102461
03:00+8sw114714 0.0 102455
06:00+7sw234845 0.0 102374
09:00+10s33465 0.0 1023271
12:00+12s555088 0.0 1022781
15:00+12s664925 0.0 1020645
18:00+11s6754100 0.0 1020469
21:00+9ssw5967100 0.0 1020307
26 april, mon
mon2600:00+8sw5787100 0.6 1021280
03:00+8nnw7883100 1.1 1020745
06:00+7nnw477385 0.6 1021482
09:00+8nnw57525 0.6 1022766
12:00+10nnw45422 0.0 10221371
15:00+12nw454390 0.0 1020941
18:00+13nw134791 0.0 1019822
21:00+9ssw4767100 0.0 1020249